Torna al catalogo

SOLRAD 7A

AttivoScienzaLEO
NORAD 730·PAYLOAD·🇺🇸 United States

Lanciato Jan 11, 1964 da Vandenberg Space Force Base

Loading…

Prossimi Passaggi (prossime 24 ore)

TLE

AggiornatoSource: Space-Track

Epoca: Sep 14, 2026, 05:23 UTC

1 00730U 64001D   26257.22471132 -.00000029  00000-0  18106-4 0  9997
2 00730  69.9043  85.6764 0016550 277.6412 189.9704 13.96066176 73064

Traccia SOLRAD 7A in tempo reale con AllMySat

Download on the App Store